Dades meteomassalio
Diari Summary for Maig 13, 2017 Units:  English    Metric   Both
« Previous Day
Next Day »
Diari Semanal Mensual Anual Personalitzat
  Maxima: Minima: Mijana:
Temperatura: TemperatureC °F 10.4 °F 17.8 °F
Rosada: DewpointC °F 7.8 °F 10.3 °F
Humitat: Humidity % 39 % 63 %
Velocitat del vent: WindSpeedKMH mph 0.0 mph 5 mph
Racha vent: WindSpeedGustKMH mph - -
Vent:- - SSW
Pressio: PressurehPa in 1011.7 in -
Pluja: 0.8 in    
Historical Graphs
 
 
Tabular Data for Maig 13, 2017
Time Temperature Dew Point Pressure Wind Wind Speed Wind Gust Humidity Rainfall Rate (Hourly) solar Conditions
TemperatureC °F DewpointC °F PressurehPa in Calm     Humidity % HourlyPrecipMM in SolarRadiationWatts/m^2 W/m2 Conditions
00:03 18.2 °F 9.3 °F 1011.7 in WNW 5.6 mph 5.6 mph 56 % 0.0 in 0.0 W/m2 CLR
00:08 17.9 °F 9.5 °F 1011.7 in NNW 3.7 mph 3.7 mph 58 % 0.0 in 0.0 W/m2 CLR
00:13 17.6 °F 9.4 °F 1011.7 in Calm     59 % 0.0 in 0.0 W/m2 CLR
00:18 17.3 °F 9.4 °F 1012.1 in Calm     60 % 0.0 in 0.0 W/m2 CLR
00:23 17.1 °F 9.5 °F 1011.7 in Calm     61 % 0.0 in 0.0 W/m2 CLR
00:28 16.8 °F 9.5 °F 1012.1 in Calm     62 % 0.0 in 0.0 W/m2 CLR
00:30 16.7 °F 9.7 °F 1012.1 in Calm     63 % 0.0 in 0.0 W/m2 CLR
00:35 16.4 °F 9.6 °F 1012.1 in Calm     64 % 0.0 in 0.0 W/m2 CLR
00:40 16.2 °F 9.6 °F 1012.1 in Calm     65 % 0.0 in 0.0 W/m2 CLR
00:45 16.2 °F 9.6 °F 1011.7 in WNW 6.4 mph 6.4 mph 65 % 0.0 in 0.0 W/m2 CLR
00:50 16.3 °F 9.7 °F 1012.1 in Calm     65 % 0.0 in 0.0 W/m2 CLR
00:55 16.1 °F 9.5 °F 1012.1 in Calm     65 % 0.0 in 0.0 W/m2 CLR
01:00 15.9 °F 9.6 °F 1012.1 in Calm     66 % 0.0 in 0.0 W/m2 CLR
01:05 15.8 °F 9.5 °F 1012.1 in Calm     66 % 0.0 in 0.0 W/m2 CLR
01:10 15.7 °F 9.6 °F 1012.1 in Calm     67 % 0.0 in 0.0 W/m2 CLR
01:15 15.5 °F 9.4 °F 1012.1 in Calm     67 % 0.0 in 0.0 W/m2 CLR
01:20 15.4 °F 9.5 °F 1012.1 in Calm     68 % 0.0 in 0.0 W/m2 CLR
01:25 15.2 °F 9.3 °F 1012.1 in Calm     68 % 0.0 in 0.0 W/m2 CLR
01:30 15.1 °F 9.4 °F 1012.1 in Calm     69 % 0.0 in 0.0 W/m2 CLR
01:35 14.7 °F 9.3 °F 1012.1 in Calm     70 % 0.0 in 0.0 W/m2 CLR
01:40 14.3 °F 9.3 °F 1012.1 in WNW 1.6 mph 1.6 mph 72 % 0.0 in 0.0 W/m2 CLR
01:45 14.2 °F 9.4 °F 1012.1 in Calm     73 % 0.0 in 0.0 W/m2 CLR
01:50 14.3 °F 9.5 °F 1012.1 in Calm     73 % 0.0 in 0.0 W/m2 CLR
01:54 14.3 °F 9.5 °F 1012.1 in Calm     73 % 0.0 in 0.0 W/m2 CLR
01:59 14.3 °F 9.6 °F 1012.1 in Calm     73 % 0.0 in 0.0 W/m2 CLR
02:04 14.2 °F 9.4 °F 1012.1 in Calm     73 % 0.0 in 0.0 W/m2 CLR
02:09 13.9 °F 9.2 °F 1012.1 in Calm     73 % 0.0 in 0.0 W/m2 CLR
02:14 13.8 °F 9.3 °F 1012.4 in Calm     74 % 0.0 in 0.0 W/m2 CLR
02:19 13.8 °F 9.1 °F 1012.1 in Calm     73 % 0.0 in 0.0 W/m2 CLR
02:24 13.8 °F 9.3 °F 1012.1 in Calm     74 % 0.0 in 0.0 W/m2 CLR
02:29 13.8 °F 9.2 °F 1012.1 in Calm     74 % 0.0 in 0.0 W/m2 CLR
02:34 13.6 °F 9.1 °F 1012.4 in Calm     74 % 0.0 in 0.0 W/m2 CLR
02:39 13.6 °F 9.2 °F 1012.4 in Calm     75 % 0.0 in 0.0 W/m2 CLR
02:44 13.6 °F 9.3 °F 1012.4 in Calm     75 % 0.0 in 0.0 W/m2 CLR
02:49 13.6 °F 9.2 °F 1012.4 in Calm     75 % 0.0 in 0.0 W/m2 CLR
02:54 13.6 °F 9.4 °F 1012.4 in Calm     76 % 0.0 in 0.0 W/m2 CLR
02:59 13.5 °F 9.3 °F 1012.4 in Calm     76 % 0.0 in 0.0 W/m2 CLR
03:04 13.3 °F 9.2 °F 1012.4 in Calm     76 % 0.0 in 0.0 W/m2 CLR
03:09 13.2 °F 9.3 °F 1012.4 in Calm     77 % 0.0 in 0.0 W/m2 CLR
03:14 12.9 °F 9.2 °F 1012.4 in Calm     78 % 0.0 in 0.0 W/m2 CLR
03:19 12.7 °F 9.2 °F 1012.4 in Calm     79 % 0.0 in 0.0 W/m2 CLR
03:24 12.5 °F 9.2 °F 1012.4 in Calm     80 % 0.0 in 0.0 W/m2 CLR
03:29 12.4 °F 9.2 °F 1012.4 in Calm     81 % 0.0 in 0.0 W/m2 CLR
03:34 12.5 °F 9.2 °F 1012.4 in Calm     80 % 0.0 in 0.0 W/m2 CLR
03:39 12.5 °F 9.2 °F 1012.4 in Calm     80 % 0.0 in 0.0 W/m2 CLR
03:44 12.4 °F 9.1 °F 1012.4 in Calm     80 % 0.0 in 0.0 W/m2 CLR
03:49 12.6 °F 9.0 °F 1012.4 in Calm     79 % 0.0 in 0.0 W/m2 CLR
03:54 12.5 °F 8.9 °F 1012.4 in Calm     79 % 0.0 in 0.0 W/m2 CLR
03:59 12.4 °F 8.8 °F 1012.4 in Calm     79 % 0.0 in 0.0 W/m2 CLR
04:04 12.3 °F 8.9 °F 1012.4 in Calm     80 % 0.0 in 0.0 W/m2 CLR
04:09 12.2 °F 8.8 °F 1012.8 in Calm     80 % 0.0 in 0.0 W/m2 CLR
04:14 12.0 °F 8.7 °F 1012.4 in Calm     80 % 0.0 in 0.0 W/m2 CLR
04:19 11.9 °F 8.6 °F 1012.8 in Calm     80 % 0.0 in 0.0 W/m2 CLR
04:24 11.8 °F 8.4 °F 1012.8 in Calm     80 % 0.0 in 0.0 W/m2 CLR
04:29 11.6 °F 8.4 °F 1012.8 in Calm     81 % 0.0 in 0.0 W/m2 CLR
04:30 11.6 °F 8.4 °F 1012.8 in Calm     81 % 0.0 in 0.0 W/m2 CLR
04:35 11.4 °F 8.4 °F 1012.8 in Calm     82 % 0.0 in 0.0 W/m2 CLR
04:40 11.3 °F 8.4 °F 1012.8 in Calm     82 % 0.0 in 0.0 W/m2 CLR
04:45 11.4 °F 8.5 °F 1012.8 in Calm     82 % 0.0 in 0.0 W/m2 CLR
04:50 11.5 °F 8.6 °F 1013.1 in Calm     82 % 0.0 in 0.0 W/m2 CLR
04:55 11.5 °F 8.6 °F 1013.1 in Calm     82 % 0.0 in 0.0 W/m2 CLR
05:00 11.5 °F 8.6 °F 1013.1 in Calm     82 % 0.0 in 0.0 W/m2 CLR
05:05 11.4 °F 8.3 °F 1013.1 in Calm     81 % 0.0 in 0.0 W/m2 CLR
05:10 11.3 °F 8.4 °F 1013.1 in Calm     82 % 0.0 in 0.0 W/m2 CLR
05:15 11.3 °F 8.3 °F 1013.1 in Calm     82 % 0.0 in 0.0 W/m2 CLR
05:20 11.3 °F 8.1 °F 1013.1 in Calm     81 % 0.0 in 0.0 W/m2 CLR
05:25 11.2 °F 8.0 °F 1013.1 in Calm     81 % 0.0 in 0.0 W/m2 CLR
05:30 11.0 °F 8.1 °F 1013.1 in Calm     82 % 0.0 in 0.0 W/m2 CLR
05:35 10.9 °F 8.0 °F 1013.4 in Calm     82 % 0.0 in 0.0 W/m2 CLR
05:40 10.9 °F 8.2 °F 1013.4 in Calm     83 % 0.0 in 0.0 W/m2 CLR
05:45 11.0 °F 8.2 °F 1013.4 in Calm     83 % 0.0 in 0.0 W/m2 CLR
05:50 11.1 °F 8.3 °F 1013.4 in Calm     83 % 0.0 in 0.0 W/m2 CLR
05:55 11.3 °F 8.5 °F 1013.4 in Calm     83 % 0.0 in 0.0 W/m2 CLR
06:00 11.4 °F 8.4 °F 1013.4 in Calm     82 % 0.0 in 0.0 W/m2 CLR
06:05 11.4 °F 8.2 °F 1013.4 in Calm     81 % 0.0 in 0.0 W/m2 CLR
06:10 11.4 °F 8.4 °F 1013.4 in Calm     82 % 0.0 in 0.0 W/m2 CLR
06:15 11.4 °F 8.2 °F 1013.4 in Calm     81 % 0.0 in 0.0 W/m2 CLR
06:20 11.2 °F 8.0 °F 1013.4 in Calm     81 % 0.0 in 0.0 W/m2 CLR
06:25 10.9 °F 8.0 °F 1013.4 in Calm     82 % 0.0 in 0.0 W/m2 CLR
06:30 10.8 °F 8.1 °F 1013.4 in Calm     83 % 0.0 in 0.0 W/m2 CLR
06:35 10.8 °F 8.1 °F 1013.4 in Calm     83 % 0.0 in 0.0 W/m2 OVC
06:40 10.8 °F 8.0 °F 1013.4 in Calm     83 % 0.0 in 0.0 W/m2 OVC
06:45 10.8 °F 8.0 °F 1013.4 in Calm     83 % 0.0 in 5.0 W/m2 OVC
06:50 10.7 °F 7.9 °F 1013.8 in Calm     83 % 0.0 in 7.0 W/m2 BKN
06:55 10.6 °F 7.9 °F 1013.8 in Calm     84 % 0.0 in 9.0 W/m2 BKN
07:00 10.5 °F 7.9 °F 1013.8 in Calm     84 % 0.0 in 12.0 W/m2 BKN
07:05 10.4 °F 7.8 °F 1013.8 in Calm     84 % 0.0 in 14.0 W/m2 BKN
07:10 10.4 °F 8.0 °F 1013.8 in Calm     85 % 0.0 in 16.0 W/m2 BKN
07:15 10.5 °F 8.1 °F 1013.8 in Calm     85 % 0.0 in 19.0 W/m2 BKN
07:20 10.7 °F 8.3 °F 1013.8 in Calm     85 % 0.0 in 26.0 W/m2 BKN
07:25 10.9 °F 8.3 °F 1014.1 in Calm     84 % 0.0 in 28.0 W/m2 BKN
07:30 10.9 °F 8.3 °F 1014.1 in SE 3.7 mph 3.7 mph 84 % 0.0 in 47.0 W/m2 SCT
07:35 11.1 °F 8.3 °F 1014.1 in Calm     83 % 0.0 in 62.0 W/m2 SCT
07:40 11.3 °F 8.6 °F 1014.1 in Calm     83 % 0.0 in 77.0 W/m2 FEW
07:45 11.6 °F 8.8 °F 1014.1 in Calm     83 % 0.0 in 91.0 W/m2 FEW
07:50 12.0 °F 9.0 °F 1014.1 in Calm     82 % 0.0 in 107.0 W/m2 CLR
07:55 12.5 °F 9.3 °F 1014.4 in Calm     81 % 0.0 in 123.0 W/m2 CLR
08:00 13.0 °F 9.6 °F 1014.4 in Calm     80 % 0.0 in 142.0 W/m2 CLR
08:05 13.6 °F 9.8 °F 1014.4 in Calm     78 % 0.0 in 160.0 W/m2 CLR
08:10 14.0 °F 9.8 °F 1014.4 in Calm     76 % 0.0 in 178.0 W/m2 CLR
08:15 14.3 °F 9.9 °F 1014.4 in Calm     75 % 0.0 in 195.0 W/m2 CLR
08:20 14.7 °F 10.1 °F 1014.8 in Calm     74 % 0.0 in 216.0 W/m2 CLR
08:25 15.1 °F 10.3 °F 1014.8 in Calm     73 % 0.0 in 232.0 W/m2 CLR
08:30 15.4 °F 10.4 °F 1014.4 in Calm     72 % 0.0 in 253.0 W/m2 CLR
08:35 15.8 °F 10.4 °F 1014.8 in Calm     70 % 0.0 in 258.0 W/m2 CLR
08:40 16.2 °F 10.7 °F 1014.8 in Calm     70 % 0.0 in 279.0 W/m2 CLR
08:45 16.6 °F 10.6 °F 1014.8 in WNW 9.7 mph 9.7 mph 68 % 0.0 in 339.0 W/m2 CLR
08:50 17.1 °F 10.7 °F 1014.8 in NW 14.5 mph 14.5 mph 66 % 0.0 in 353.0 W/m2 CLR
08:55 17.4 °F 10.7 °F 1014.8 in West 12.9 mph 12.9 mph 65 % 0.0 in 134.0 W/m2 CLR
09:00 17.6 °F 10.5 °F 1014.8 in West 14.8 mph 14.8 mph 63 % 0.0 in 355.0 W/m2 CLR
09:05 17.8 °F 10.4 °F 1014.8 in WNW 13.0 mph 13.0 mph 62 % 0.0 in 285.0 W/m2 CLR
09:10 17.9 °F 10.6 °F 1014.8 in NW 9.3 mph 9.3 mph 62 % 0.0 in 380.0 W/m2 CLR
09:15 18.1 °F 10.4 °F 1014.8 in WNW 11.1 mph 11.1 mph 61 % 0.0 in 394.0 W/m2 CLR
09:20 18.3 °F 10.7 °F 1014.8 in NW 13.0 mph 13.0 mph 61 % 0.0 in 406.0 W/m2 CLR
09:25 18.5 °F 10.6 °F 1014.8 in WNW 13.0 mph 13.0 mph 60 % 0.0 in 424.0 W/m2 CLR
09:30 18.6 °F 10.6 °F 1014.8 in West 9.3 mph 9.3 mph 60 % 0.0 in 443.0 W/m2 CLR
09:35 18.7 °F 10.6 °F 1014.8 in WNW 11.1 mph 11.1 mph 59 % 0.0 in 475.0 W/m2 CLR
09:41 18.8 °F 10.7 °F 1014.8 in West 11.1 mph 11.1 mph 59 % 0.0 in 359.0 W/m2 CLR
09:46 18.9 °F 10.5 °F 1014.8 in West 11.1 mph 11.1 mph 58 % 0.0 in 181.0 W/m2 CLR
09:51 19.0 °F 10.8 °F 1014.8 in WNW 1.9 mph   59 % 0.0 in 531.0 W/m2 CLR
09:56 19.4 °F 10.9 °F 1014.8 in SW 13.0 mph 13.0 mph 58 % 0.0 in 584.0 W/m2 CLR
10:01 19.6 °F 10.8 °F 1015.1 in West 11.1 mph 11.1 mph 57 % 0.0 in 541.0 W/m2 CLR
10:06 19.2 °F 10.2 °F 1015.1 in WSW 8.0 mph 8.0 mph 56 % 0.0 in 606.0 W/m2 CLR
10:11 19.3 °F 11.1 °F 1015.1 in Calm   2.4 mph 59 % 0.0 in 696.0 W/m2 CLR
10:16 19.2 °F 10.5 °F 1015.1 in NNW 6.4 mph 6.4 mph 57 % 0.0 in 165.0 W/m2 CLR
10:21 19.6 °F 10.6 °F 1015.1 in NW 11.1 mph 11.1 mph 56 % 0.0 in 612.0 W/m2 CLR
10:26 19.8 °F 10.7 °F 1015.1 in NNW 6.4 mph 6.4 mph 56 % 0.0 in 633.0 W/m2 CLR
10:31 20.1 °F 10.4 °F 1015.1 in North 5.6 mph 5.6 mph 54 % 0.0 in 719.0 W/m2 CLR
10:36 20.3 °F 11.0 °F 1015.1 in WNW 9.7 mph 9.7 mph 55 % 0.0 in 793.0 W/m2 CLR
10:41 20.0 °F 10.1 °F 1015.1 in WNW 16.7 mph 16.7 mph 53 % 0.0 in 272.0 W/m2 CLR
10:46 20.0 °F 10.4 °F 1015.1 in North 6.4 mph 6.4 mph 54 % 0.0 in 851.0 W/m2 CLR
10:51 20.3 °F 10.7 °F 1015.1 in NNW 11.1 mph 11.1 mph 54 % 0.0 in 877.0 W/m2 CLR
10:56 20.3 °F 10.7 °F 1015.1 in North 14.8 mph 14.8 mph 54 % 0.0 in 209.0 W/m2 CLR
11:01 20.3 °F 10.7 °F 1015.5 in North 18.5 mph 18.5 mph 54 % 0.0 in 858.0 W/m2 CLR
11:06 20.3 °F 10.7 °F 1015.5 in West 5.6 mph 5.6 mph 54 % 0.0 in 283.0 W/m2 CLR
11:11 20.3 °F 10.9 °F 1015.5 in Calm     55 % 0.0 in 258.0 W/m2 CLR
11:16 20.6 °F 11.2 °F 1015.5 in WNW 12.9 mph 12.9 mph 55 % 0.0 in 237.0 W/m2 CLR
11:21 20.2 °F 10.6 °F 1015.5 in NNW 11.3 mph 11.3 mph 54 % 0.0 in 223.0 W/m2 CLR
11:26 20.0 °F 10.7 °F 1015.5 in NNW 13.0 mph 13.0 mph 55 % 0.0 in 332.0 W/m2 CLR
11:31 20.3 °F 10.7 °F 1015.5 in WNW 17.7 mph 17.7 mph 54 % 0.0 in 974.0 W/m2 CLR
11:36 20.5 °F 10.6 °F 1015.8 in WNW 9.3 mph 9.3 mph 53 % 0.0 in 809.0 W/m2 CLR
11:41 20.7 °F 10.5 °F 1015.8 in WNW 16.7 mph 16.7 mph 52 % 0.0 in 643.0 W/m2 CLR
11:46 20.9 °F 10.7 °F 1015.5 in North 14.8 mph 14.8 mph 52 % 0.0 in 919.0 W/m2 CLR
11:51 20.8 °F 11.2 °F 1015.8 in NNW 7.4 mph 7.4 mph 54 % 0.0 in 1020.0 W/m2 CLR
11:56 21.2 °F 11.3 °F 1015.5 in North 11.3 mph 11.3 mph 53 % 0.0 in 933.0 W/m2 CLR
12:01 21.2 °F 10.6 °F 1015.5 in NNE 9.3 mph 9.3 mph 51 % 0.0 in 517.0 W/m2 CLR
12:06 21.0 °F 10.8 °F 1015.5 in North 13.0 mph 13.0 mph 52 % 0.0 in 185.0 W/m2 CLR
12:11 21.1 °F 10.5 °F 1015.5 in North 9.3 mph 9.3 mph 51 % 0.0 in 1009.0 W/m2 CLR
12:16 21.1 °F 10.6 °F 1015.5 in NW 9.3 mph 9.3 mph 51 % 0.0 in 1055.0 W/m2 CLR
12:21 21.3 °F 10.7 °F 1015.5 in NE 5.6 mph 5.6 mph 51 % 0.0 in 1120.0 W/m2 CLR
12:26 21.6 °F 10.4 °F 1015.5 in NNW 9.3 mph 9.3 mph 49 % 0.0 in 420.0 W/m2 CLR
12:31 21.8 °F 10.6 °F 1015.5 in NNW 18.5 mph 18.5 mph 49 % 0.0 in 872.0 W/m2 CLR
12:36 21.4 °F 10.6 °F 1015.5 in NNW 13.0 mph 13.0 mph 50 % 0.0 in 162.0 W/m2 CLR
12:41 21.1 °F 10.2 °F 1015.5 in Calm     50 % 0.0 in 121.0 W/m2 CLR
12:46 20.7 °F 10.7 °F 1015.8 in ENE 11.3 mph 11.3 mph 53 % 0.0 in 155.0 W/m2 CLR
12:51 20.1 °F 11.0 °F 1015.5 in ENE 7.4 mph 7.4 mph 56 % 0.0 in 162.0 W/m2 CLR
12:52 20.0 °F 11.2 °F 1015.5 in ENE 11.3 mph 11.3 mph 57 % 0.0 in 169.0 W/m2 CLR
12:57 19.3 °F 11.1 °F 1015.5 in ENE 9.3 mph 9.3 mph 59 % 0.0 in 949.0 W/m2 CLR
13:02 19.7 °F 11.2 °F 1015.5 in NW 9.3 mph 9.3 mph 58 % 0.0 in 923.0 W/m2 CLR
13:07 20.0 °F 11.7 °F 1015.5 in ENE 13.0 mph 13.0 mph 59 % 0.0 in 919.0 W/m2 CLR
13:12 20.3 °F 11.7 °F 1015.5 in ENE 6.4 mph 6.4 mph 58 % 0.0 in 923.0 W/m2 CLR
13:17 20.6 °F 11.2 °F 1015.1 in Calm     55 % 0.0 in 930.0 W/m2 CLR
13:22 21.1 °F 10.3 °F 1015.1 in South 5.6 mph 5.6 mph 50 % 0.0 in 942.0 W/m2 CLR
13:27 21.4 °F 9.9 °F 1015.5 in SSE 1.9 mph   48 % 0.0 in 977.0 W/m2 CLR
13:32 21.9 °F 10.7 °F 1015.5 in Calm     49 % 0.0 in 1037.0 W/m2 CLR
13:37 22.6 °F 10.3 °F 1015.1 in NE 5.6 mph 5.6 mph 46 % 0.0 in 1093.0 W/m2 CLR
13:42 22.9 °F 10.7 °F 1015.1 in ENE 8.0 mph 8.0 mph 46 % 0.0 in 388.0 W/m2 CLR
13:47 22.8 °F 10.3 °F 1015.1 in Calm     45 % 0.0 in 246.0 W/m2 CLR
13:52 22.7 °F 10.5 °F 1015.5 in ENE 7.4 mph 7.4 mph 46 % 0.0 in 313.0 W/m2 CLR
13:57 22.5 °F 10.3 °F 1015.1 in ENE 9.7 mph 9.7 mph 46 % 0.0 in 294.0 W/m2 CLR
14:02 22.3 °F 10.2 °F 1015.1 in NE 7.4 mph   46 % 0.0 in 294.0 W/m2 CLR
14:07 22.3 °F 10.4 °F 1015.1 in Calm     47 % 0.0 in 336.0 W/m2 CLR
14:12 22.6 °F 10.3 °F 1015.1 in ENE 3.7 mph 3.7 mph 46 % 0.0 in 260.0 W/m2 CLR
14:17 22.5 °F 9.9 °F 1014.8 in ENE 7.4 mph 7.4 mph 45 % 0.0 in 1116.0 W/m2 CLR
14:22 22.8 °F 9.9 °F 1015.1 in ENE 5.6 mph 5.6 mph 44 % 0.0 in 1169.0 W/m2 CLR
14:27 22.7 °F 9.8 °F 1015.1 in Calm     44 % 0.0 in 323.0 W/m2 CLR
14:32 22.9 °F 10.0 °F 1015.1 in Calm     44 % 0.0 in 1206.0 W/m2 CLR
14:37 23.2 °F 10.2 °F 1015.1 in ENE 11.1 mph 11.1 mph 44 % 0.0 in 1178.0 W/m2 CLR
14:39 23.2 °F 9.9 °F 1015.1 in NE 1.9 mph   43 % 0.0 in 490.0 W/m2 CLR
14:44 23.4 °F 10.1 °F 1015.1 in Calm     43 % 0.0 in 817.0 W/m2 CLR
14:49 23.4 °F 9.7 °F 1015.1 in ENE 1.6 mph 1.6 mph 42 % 0.0 in 239.0 W/m2 CLR
14:54 23.1 °F 9.8 °F 1015.1 in NNW 9.7 mph 9.7 mph 43 % 0.0 in 267.0 W/m2 CLR
14:59 22.9 °F 9.7 °F 1015.1 in NW 5.6 mph 5.6 mph 43 % 0.0 in 316.0 W/m2 CLR
15:04 23.1 °F 9.5 °F 1015.1 in Calm     42 % 0.0 in 1111.0 W/m2 CLR
15:09 23.8 °F 10.4 °F 1014.8 in Calm     43 % 0.0 in 1046.0 W/m2 CLR
15:14 24.1 °F 9.7 °F 1015.1 in ENE 5.6 mph 5.6 mph 40 % 0.0 in 288.0 W/m2 CLR
15:19 23.7 °F 9.6 °F 1015.1 in NE 13.0 mph 13.0 mph 41 % 0.0 in 229.0 W/m2 CLR
15:24 23.3 °F 9.7 °F 1015.1 in Calm     42 % 0.0 in 179.0 W/m2 CLR
15:29 23.2 °F 9.6 °F 1015.1 in Calm     42 % 0.0 in 230.0 W/m2 CLR
15:34 23.2 °F 9.2 °F 1014.8 in Calm     41 % 0.0 in 944.0 W/m2 CLR
15:39 23.6 °F 10.3 °F 1015.1 in East 14.8 mph 14.8 mph 43 % 0.0 in 865.0 W/m2 CLR
15:44 23.8 °F 9.8 °F 1015.1 in East 5.6 mph   41 % 0.0 in 860.0 W/m2 CLR
15:49 24.1 °F 9.6 °F 1015.1 in NE 11.1 mph 11.1 mph 40 % 0.0 in 874.0 W/m2 CLR
15:54 24.2 °F 9.8 °F 1015.1 in NE 7.4 mph 7.4 mph 40 % 0.0 in 946.0 W/m2 CLR
15:59 24.2 °F 9.8 °F 1014.8 in Calm     40 % 0.0 in 946.0 W/m2 CLR
16:04 24.3 °F 9.5 °F 1014.8 in Calm     39 % 0.0 in 1048.0 W/m2 CLR
16:09 24.0 °F 9.2 °F 1014.8 in ENE 6.4 mph 6.4 mph 39 % 0.0 in 302.0 W/m2 CLR
16:14 23.9 °F 9.1 °F 1014.8 in ENE 12.9 mph 12.9 mph 39 % 0.0 in 385.0 W/m2 CLR
16:19 23.6 °F 8.8 °F 1014.8 in SE 7.4 mph 7.7 mph 39 % 0.0 in 251.0 W/m2 CLR
16:25 22.6 °F 11.1 °F 1014.8 in SE 14.8 mph 14.8 mph 48 % 0.0 in 255.0 W/m2 CLR
16:30 22.1 °F 11.2 °F 1014.8 in SSE 16.7 mph 16.7 mph 50 % 0.0 in 181.0 W/m2 CLR
16:35 21.9 °F 11.1 °F 1014.8 in SE 18.5 mph 18.5 mph 50 % 0.0 in 193.0 W/m2 CLR
16:40 22.0 °F 11.1 °F 1014.8 in SE 16.7 mph 16.7 mph 50 % 0.0 in 178.0 W/m2 CLR
16:45 22.0 °F 11.1 °F 1014.8 in SE 29.6 mph 29.6 mph 50 % 0.0 in 158.0 W/m2 CLR
16:50 21.9 °F 11.1 °F 1014.8 in South 20.4 mph 20.4 mph 50 % 0.0 in 258.0 W/m2 CLR
16:55 22.1 °F 10.6 °F 1014.8 in South 14.8 mph 15.9 mph 48 % 0.0 in 257.0 W/m2 CLR
17:00 21.9 °F 10.4 °F 1014.8 in South 18.5 mph 18.5 mph 48 % 0.0 in 803.0 W/m2 CLR
17:05 21.8 °F 10.3 °F 1014.8 in SSE 18.5 mph 18.5 mph 48 % 0.0 in 162.0 W/m2 CLR
17:10 21.7 °F 9.8 °F 1014.8 in South 16.7 mph 16.7 mph 47 % 0.0 in 200.0 W/m2 CLR
17:15 21.8 °F 10.3 °F 1014.8 in South 14.8 mph 14.8 mph 48 % 0.0 in 160.0 W/m2 CLR
17:20 21.8 °F 10.3 °F 1014.8 in SSW 14.8 mph 14.8 mph 48 % 0.0 in 160.0 W/m2 CLR
17:25 21.7 °F 10.2 °F 1014.8 in South 12.9 mph 12.9 mph 48 % 0.0 in 192.0 W/m2 CLR
17:30 21.7 °F 10.2 °F 1014.8 in South 16.7 mph 16.7 mph 48 % 0.0 in 262.0 W/m2 CLR
17:35 21.9 °F 10.7 °F 1014.8 in SSW 13.0 mph 14.3 mph 49 % 0.0 in 246.0 W/m2 CLR
17:40 21.9 °F 10.7 °F 1014.8 in South 14.8 mph 14.8 mph 49 % 0.0 in 299.0 W/m2 CLR
17:45 22.1 °F 10.8 °F 1014.8 in South 13.0 mph 13.0 mph 49 % 0.0 in 318.0 W/m2 CLR
17:50 22.1 °F 10.6 °F 1014.8 in South 16.7 mph 16.7 mph 48 % 0.0 in 262.0 W/m2 CLR
17:55 22.2 °F 10.7 °F 1014.8 in SSW 11.1 mph 11.1 mph 48 % 0.0 in 190.0 W/m2 CLR
18:00 22.2 °F 10.4 °F 1014.8 in South 16.7 mph 16.7 mph 47 % 0.0 in 279.0 W/m2 CLR
18:05 22.3 °F 10.4 °F 1014.8 in SSE 16.7 mph 16.7 mph 47 % 0.0 in 283.0 W/m2 CLR
18:10 22.3 °F 10.4 °F 1014.8 in South 12.9 mph 12.9 mph 47 % 0.0 in 141.0 W/m2 CLR
18:15 22.3 °F 10.4 °F 1014.8 in South 9.7 mph 9.7 mph 47 % 0.0 in 156.0 W/m2 CLR
18:20 22.3 °F 10.4 °F 1015.1 in SSW 11.1 mph 11.1 mph 47 % 0.0 in 195.0 W/m2 CLR
18:25 22.4 °F 10.5 °F 1014.8 in South 11.1 mph 11.1 mph 47 % 0.0 in 227.0 W/m2 CLR
18:30 22.7 °F 10.4 °F 1015.1 in SSW 11.1 mph 11.1 mph 46 % 0.0 in 209.0 W/m2 CLR
18:35 22.7 °F 10.5 °F 1015.1 in WSW 8.0 mph 8.0 mph 46 % 0.0 in 169.0 W/m2 CLR
18:40 22.7 °F 10.5 °F 1015.1 in WSW 5.6 mph 5.6 mph 46 % 0.0 in 207.0 W/m2 CLR
18:45 22.7 °F 10.5 °F 1015.1 in South 7.4 mph 7.4 mph 46 % 0.0 in 114.0 W/m2 CLR
18:50 22.7 °F 10.2 °F 1015.1 in Calm     45 % 0.0 in 132.0 W/m2 CLR
18:55 22.8 °F 10.2 °F 1015.1 in West 3.7 mph   45 % 0.0 in 223.0 W/m2 CLR
19:00 23.2 °F 10.2 °F 1015.1 in Calm     44 % 0.0 in 482.0 W/m2 CLR
19:05 23.9 °F 10.2 °F 1015.1 in Calm     42 % 0.0 in 438.0 W/m2 CLR
19:10 24.2 °F 11.5 °F 1015.1 in NNW 16.7 mph 16.7 mph 45 % 0.0 in 399.0 W/m2 CLR
19:15 23.9 °F 11.3 °F 1015.1 in NNE 11.1 mph 11.1 mph 45 % 0.0 in 353.0 W/m2 CLR
19:21 23.9 °F 11.6 °F 1015.1 in NW 11.1 mph 11.1 mph 46 % 0.0 in 346.0 W/m2 CLR
19:26 23.5 °F 11.8 °F 1015.1 in NNW 13.0 mph 13.0 mph 48 % 0.0 in 104.0 W/m2 CLR
19:31 22.8 °F 11.6 °F 1015.1 in NNW 7.4 mph 7.4 mph 49 % 0.0 in 72.0 W/m2 CLR
19:36 22.4 °F 11.5 °F 1015.1 in NNW 6.4 mph 6.4 mph 50 % 0.0 in 47.0 W/m2 FEW
19:41 22.2 °F 11.3 °F 1015.5 in Calm     50 % 0.0 in 54.0 W/m2 SCT
19:46 22.1 °F 10.9 °F 1015.5 in South 12.9 mph 12.9 mph 49 % 0.0 in 60.0 W/m2 SCT
19:51 21.8 °F 11.2 °F 1015.5 in SSW 11.3 mph 11.3 mph 51 % 0.0 in 47.0 W/m2 SCT
19:56 21.6 °F 11.3 °F 1015.8 in South 14.8 mph 14.8 mph 52 % 0.0 in 35.0 W/m2 SCT
20:01 21.4 °F 11.4 °F 1015.8 in SSW 13.0 mph 13.0 mph 53 % 0.0 in 25.0 W/m2 BKN
20:06 21.4 °F 11.4 °F 1016.1 in SW 14.8 mph 14.8 mph 53 % 0.0 in 19.0 W/m2 BKN
20:11 21.4 °F 11.1 °F 1016.1 in WSW 14.8 mph 14.8 mph 52 % 0.0 in 30.0 W/m2 BKN
20:16 20.9 °F 12.4 °F 1016.5 in NW 13.0 mph 13.0 mph 58 % 0.0 in 30.0 W/m2 BKN
20:21 20.4 °F 12.6 °F 1016.5 in NW 5.6 mph 5.6 mph 61 % 0.0 in 37.0 W/m2 BKN
20:26 20.2 °F 12.7 °F 1016.5 in NNW 5.6 mph 5.6 mph 62 % 0.0 in 49.0 W/m2 SCT
20:31 20.2 °F 12.7 °F 1016.5 in Calm     62 % 0.0 in 49.0 W/m2 SCT
20:36 20.2 °F 12.9 °F 1016.5 in North 11.1 mph 11.1 mph 63 % 0.0 in 33.0 W/m2 BKN
20:41 19.9 °F 13.2 °F 1016.8 in ENE 3.2 mph 5.1 mph 65 % 0.0 in 16.0 W/m2 BKN
20:47 19.6 °F 12.8 °F 1016.8 in NE 5.6 mph   65 % 0.0 in 11.0 W/m2 BKN
20:52 19.2 °F 12.7 °F 1017.2 in Calm     66 % 0.0 in 9.0 W/m2 BKN
20:57 18.9 °F 12.9 °F 1017.2 in Calm     68 % 0.0 in 5.0 W/m2 BKN
21:02 18.7 °F 12.7 °F 1017.2 in Calm     68 % 0.0 in 5.0 W/m2 OVC
21:07 18.5 °F 12.7 °F 1017.5 in Calm     69 % 0.0 in 0.0 W/m2 OVC
21:12 18.4 °F 12.8 °F 1017.5 in Calm     70 % 0.0 in 0.0 W/m2 OVC
21:17 18.3 °F 13.2 °F 1017.5 in Calm     72 % 0.0 in 0.0 W/m2 OVC
21:22 18.2 °F 13.1 °F 1017.5 in Calm     72 % 0.0 in 0.0 W/m2 CLR
21:27 18.0 °F 13.3 °F 1017.5 in Calm     74 % 0.0 in 0.0 W/m2 CLR
21:32 17.8 °F 13.1 °F 1017.8 in Calm     74 % 0.0 in 0.0 W/m2 CLR
21:37 17.8 °F 13.1 °F 1017.8 in Calm     74 % 0.0 in 0.0 W/m2 CLR
21:42 17.7 °F 13.2 °F 1017.8 in Calm     75 % 0.0 in 0.0 W/m2 CLR
21:54 17.7 °F 13.2 °F 1018.2 in Calm     75 % 0.0 in 0.0 W/m2 CLR
21:59 17.7 °F 13.2 °F 1018.2 in Calm     75 % 0.0 in 0.0 W/m2 CLR
22:04 17.7 °F 13.4 °F 1018.5 in SW 14.8 mph 14.8 mph 76 % 0.3 in 0.0 W/m2 RA
22:09 17.5 °F 13.2 °F 1018.2 in Calm     76 % 0.3 in 0.0 W/m2
22:14 17.4 °F 13.3 °F 1018.2 in Calm     77 % 0.5 in 0.0 W/m2 RA
22:19 17.4 °F 13.1 °F 1018.2 in Calm     76 % 0.5 in 0.0 W/m2 CLR
22:24 17.4 °F 13.5 °F 1018.2 in Calm     78 % 0.5 in 0.0 W/m2 CLR
22:29 17.3 °F 13.8 °F 1018.2 in ENE 9.7 mph 9.7 mph 80 % 0.5 in 0.0 W/m2 CLR
22:35 17.0 °F 13.5 °F 1018.2 in Calm     80 % 0.5 in 0.0 W/m2 CLR
22:40 16.9 °F 13.7 °F 1018.2 in Calm     81 % 0.8 in 0.0 W/m2 RA
22:45 16.7 °F 13.8 °F 1018.5 in ENE 11.1 mph 11.1 mph 83 % 0.8 in 0.0 W/m2 CLR
22:50 16.4 °F 13.7 °F 1018.5 in WSW 7.4 mph   84 % 0.8 in 0.0 W/m2 CLR
22:55 16.3 °F 13.6 °F 1018.5 in North 11.1 mph 11.1 mph 84 % 0.8 in 0.0 W/m2 CLR
23:00 16.1 °F 13.6 °F 1018.5 in SSW 7.4 mph 7.4 mph 85 % 0.8 in 0.0 W/m2 CLR
23:05 15.9 °F 13.4 °F 1018.5 in Calm     85 % 0.5 in 0.0 W/m2 CLR
23:10 15.8 °F 13.3 °F 1018.8 in SSW 7.4 mph 7.4 mph 85 % 0.5 in 0.0 W/m2 CLR
23:15 15.7 °F 13.2 °F 1018.8 in Calm     85 % 0.3 in 0.0 W/m2 CLR
23:20 15.6 °F 13.1 °F 1018.8 in Calm     85 % 0.3 in 0.0 W/m2 CLR
23:25 15.5 °F 13.0 °F 1018.8 in Calm     85 % 0.3 in 0.0 W/m2 CLR
23:30 15.4 °F 12.7 °F 1019.2 in Calm     84 % 0.3 in 0.0 W/m2 CLR
23:35 15.4 °F 12.7 °F 1019.2 in Calm     84 % 0.3 in 0.0 W/m2 CLR
23:40 15.4 °F 12.6 °F 1019.2 in Calm     83 % 0.0 in 0.0 W/m2 CLR
23:45 15.5 °F 12.3 °F 1019.2 in Calm     81 % 0.0 in 0.0 W/m2 CLR
23:50 15.8 °F 12.3 °F 1019.2 in Calm     80 % 0.0 in 0.0 W/m2 CLR
23:55 15.8 °F 12.5 °F 1019.2 in Calm     81 % 0.0 in 0.0 W/m2 CLR
Lo Temps de Massalio
Compliments of Weather Underground - 1.25 mb